Weather History for Regina, SK

Change the Weather History Date:

Wednesday, October 24, 2012

  Actual Average Record
Temperature  
Mean Temperature 30 °F -  
Max Temperature 32 °F 44 °F 77 °F (2007)
Min Temperature 28 °F 23 °F 8 °F (2001)
Degree Days  
Heating Degree Days 35    
Moisture  
Dew Point 25 °F    
Average Humidity 79    
Maximum Humidity 86    
Minimum Humidity 65    
Precipitation  
Precipitation 0.00 in - - ()
Sea Level Pressure  
Sea Level Pressure 29.97 in    
Wind  
Wind Speed 20 mph ()    
Max Wind Speed 29 mph    
Max Gust Speed 39 mph    
Visibility 14.2 miles    
Events Snow    
Averages and records for this station are not official NWS values.
T = Trace of Precipitation, MM = Missing Value Source: Averaged Metar Reports

Daily Weather History Graph

Daily Weather History Graph

Search for Another Location

Airport:

Trip Planner

Search our weather history database for the weather conditions in past years. The results will help you decide how hot, cold, wet, or windy it might be!

Date:

Astronomy

Oct. 24, 2012 Rise Set
Actual Time 7:36 AM CST 5:47 PM CST
Civil Twilight 7:03 AM CST 6:21 PM CST
Nautical Twilight 6:25 AM CST 6:59 PM CST
Astronomical Twilight 5:47 AM CST 7:37 PM CST
Moon 3:29 PM CST (10/24) 2:05 AM CST (10/24)
Length of Visible Light 11h 18m
Length of Day
10h 10m
Waxing Gibbous, 76% of the Moon is Illuminated
Oct 24
Waxing Gibbous
Oct 29
Full
Nov 6
Last Quarter
Nov 13
New
Nov 20
First Quarter

Hourly Weather History & Observations

Time (CST) Temp. Windchill Dew Point Humidity Pressure Visibility Wind Dir Wind Speed Gust Speed Precip Events Conditions
12:00 AM 32 °F - 27 °F 76% 29.87 in 9 mi WSW 20.7 mph - -   Overcast
12:00 AM 32.0 °F 19.8 °F 26.6 °F 80% 29.87 in 15.0 mi WSW 20.7 mph - N/A   Overcast
1:00 AM 32.0 °F 20.1 °F 26.6 °F 80% 29.87 in 15.0 mi West 19.6 mph - N/A   Overcast
2:00 AM 32.0 °F 19.5 °F 26.6 °F 80% 29.88 in 15.0 mi West 21.9 mph - N/A   Overcast
4:00 AM 30.2 °F 15.9 °F 24.8 °F 80% 29.90 in 15.0 mi West 26.5 mph 33.4 mph N/A   Overcast
5:00 AM 30.2 °F 17.4 °F 24.8 °F 80% 29.92 in 15.0 mi West 20.7 mph 29.9 mph N/A   Overcast
6:00 AM 29 °F - 24 °F 74% 29.94 in 9 mi WSW 17.3 mph - -   Overcast
6:00 AM 28.4 °F 16.6 °F 24.8 °F 86% 29.95 in 15.0 mi WSW 16.1 mph 24.2 mph N/A   Overcast
6:45 AM 28.4 °F 14.7 °F - N/A% - 15.0 mi West 21.9 mph 28.8 mph N/A   Overcast
8:00 AM 28.4 °F 15.4 °F 23.0 °F 80% 29.94 in 15.0 mi WSW 19.6 mph 27.6 mph N/A   Overcast
9:00 AM 28.4 °F 13.5 °F 23.0 °F 80% 29.94 in 15.0 mi West 26.5 mph - N/A   Overcast
10:00 AM 28.4 °F 14.1 °F 23.0 °F 80% 29.96 in 15.0 mi West 24.2 mph 31.1 mph N/A   Overcast
11:00 AM 30.2 °F 16.2 °F 23.0 °F 75% 29.96 in 15.0 mi West 25.3 mph 33.4 mph N/A   Overcast
12:00 PM 31 °F - 24 °F 65% 29.96 in 9 mi West 23.0 mph - -   Overcast
12:00 PM 30.2 °F 17.1 °F 24.8 °F 80% 29.96 in 15.0 mi West 21.9 mph 33.4 mph N/A   Overcast
1:00 PM 32.0 °F 18.9 °F 24.8 °F 75% 29.96 in 15.0 mi West 24.2 mph 35.7 mph N/A   Overcast
2:00 PM 32.0 °F 18.9 °F 24.8 °F 75% 29.96 in 15.0 mi West 24.2 mph 32.2 mph N/A   Overcast
3:00 PM 32.0 °F 18.4 °F 24.8 °F 75% 29.97 in 15.0 mi WNW 26.5 mph 35.7 mph N/A   Overcast
4:00 PM 32.0 °F 17.9 °F 26.6 °F 80% 29.98 in 15.0 mi WNW 28.8 mph 39.1 mph N/A   Overcast
5:00 PM 32.0 °F 18.1 °F 26.6 °F 80% 30.00 in 15.0 mi WNW 27.6 mph 34.5 mph N/A   Overcast
6:00 PM 31 °F - 26 °F 74% 30.04 in 9 mi WNW 24.2 mph - -   Overcast
6:00 PM 32.0 °F 18.6 °F 26.6 °F 80% 30.04 in 15.0 mi WNW 25.3 mph - N/A   Overcast
7:00 PM 30.2 °F 17.4 °F 26.6 °F 86% 30.06 in 15.0 mi WNW 20.7 mph 29.9 mph N/A   Overcast
7:24 PM 30.2 °F 17.8 °F - N/A% - 15.0 mi WNW 19.6 mph 25.3 mph N/A Snow Light Snow
8:00 PM 30.2 °F 17.4 °F 26.6 °F 86% 30.07 in 15.0 mi WNW 20.7 mph 27.6 mph N/A Snow Light Snow
8:28 PM 30.2 °F 17.4 °F - N/A% - 15.0 mi WNW 20.7 mph 28.8 mph N/A   Overcast
9:00 PM 30.2 °F 17.4 °F 26.6 °F 86% 30.09 in 15.0 mi WNW 20.7 mph 27.6 mph N/A Snow Light Snow
10:00 PM 30.2 °F 16.8 °F 24.8 °F 80% 30.10 in 15.0 mi WNW 23.0 mph - N/A   Overcast
11:00 PM 28.4 °F 15.4 °F 24.8 °F 86% 30.11 in 15.0 mi WNW 19.6 mph - N/A   Overcast